Wind_Speed
3 5 12 13 8 5 4 5 5 2 6 3 9 17 9 11 5 8 8 9 9 13 22 28 31 33 33 33 32 33 35 37 35 31 31 33 36 35 39 42 44 44 43 42
4 15 7 7 5 5 6 10 8 4 5 5 9 17 12 7 7 7 9 14 13 9 10 19 27 31 32 33 32 31 33 35 36 33 35 34 30 32 39 35 39 41 44 43
12 3 13 10 4 6 5 7 4 6 3 4 6 20 14 9 1 6 10 8 10 11 12 14 20 26 30 31 31 31 31 32 32 36 35 30 30 25 23 33 38 44 44 45
10 5 7 5 11 9 11 6 5 4 3 8 4 8 6 3 9 4 10 9 8 9 9 8 17 23 27 28 29 28 28 29 31 32 31 30 30 28 32 35 34 35 37 42
6 8 9 6 7 5 4 6 8 6 4 4 3 5 5 5 2 8 10 8 5 8 7 9 15 22 24 31 28 21 19 21 27 31 31 29 29 28 28 26 28 32 35 39
5 2 6 9 5 11 7 5 5 2 2 9 8 6 9 5 6 3 5 3 6 7 8 10 16 19 25 30 33 31 33 28 18 21 26 30 30 29 25 27 29 31 32 34
4 5 2 4 6 3 7 7 1 2 4 6 5 7 18 3 11 9 6 7 4 6 7 8 12 20 24 29 32 33 36 36 34 23 13 21 28 29 28 28 25 24 26 29
12 5 12 7 8 7 10 9 5 6 5 4 3 7 7 6 5 3 5 2 4 6 6 8 14 18 21 25 28 33 32 34 36 34 29 23 17 21 26 27 29 28 28 29
8 7 3 4 5 13 6 12 9 2 3 2 4 8 14 11 11 6 9 6 4 6 7 7 13 19 21 23 25 26 26 29 36 37 35 30 27 24 22 25 30 30 31 30
6 2 3 7 4 3 7 8 2 3 5 7 5 6 11 4 6 7 5 6 6 5 5 6 12 17 21 23 23 25 29 27 30 34 36 33 31 28 25 23 22 25 27 30
5 3 0 5 8 13 7 9 4 5 5 5 2 6 7 11 8 8 5 5 6 6 6 7 11 16 18 20 25 27 30 30 36 40 36 34 33 32 29 29 29 26 25 23
9 3 4 8 2 4 12 9 11 5 5 3 2 9 4 4 8 7 6 7 5 6 6 6 12 16 19 23 25 26 26 28 30 36 34 30 29 28 28 33 33 33 30 27
11 5 2 5 3 1 6 12 13 14 2 10 7 8 4 8 7 6 8 6 5 6 6 6 12 16 18 22 24 28 27 34 33 35 33 29 31 30 34 36 35 35 35 34
18 5 12 16 6 6 6 8 15 14 8 18 14 22 9 7 6 7 6 6 5 5 6 7 9 14 16 18 20 24 20 25 25 30 25 29 27 28 33 32 31 36 38 35
11 9 13 14 5 5 7 14 17 17 25 14 25 18 23 11 8 7 7 6 5 6 7 8 8 12 16 19 21 23 21 24 28 24 23 25 26 32 33 32 34 36 36 36
5 6 8 13 10 8 5 8 14 23 25 18 18 13 5 4 7 6 6 6 5 4 5 7 8 13 16 19 21 20 25 26 26 25 27 26 32 33 33 32 34 35 34 34
8 7 5 6 6 5 6 25 11 9 16 17 18 28 8 5 8 8 7 5 4 4 6 8 8 13 16 19 20 22 24 24 24 23 22 26 29 31 32 33 35 34 34 34
10 13 6 4 3 10 9 2 18 21 13 17 15 3 7 7 6 8 5 4 4 5 6 7 10 12 15 17 19 21 22 21 22 22 27 29 30 31 32 33 33 35 35 33
16 12 4 5 9 5 5 6 8 9 16 16 19 8 6 8 6 2 5 4 4 3 5 8 10 14 16 16 19 20 19 20 20 25 28 31 31 31 32 32 32 33 34 34
6 14 10 3 5 8 12 6 8 7 14 10 13 14 13 11 5 4 6 5 4 5 7 10 13 14 14 17 19 18 20 20 23 26 28 29 29 30 30 30 33 34 31 32
10 8 16 15 5 6 7 6 6 7 7 4 7 11 11 6 2 8 7 6 6 6 8 10 11 11 13 16 18 18 19 22 26 28 29 30 31 30 30 31 32 33 35 35
11 9 8 8 10 13 7 3 15 4 4 6 6 4 9 9 8 7 5 5 6 7 7 8 9 10 12 15 15 17 19 23 28 29 30 31 31 30 29 30 31 32 33 34
6 6 7 8 6 2 3 3 3 2 6 5 7 5 8 8 4 5 4 4 4 3 4 6 8 9 11 14 15 17 20 23 27 31 31 28 28 27 28 28 29 29 30 30
3 4 3 3 3 2 2 2 4 3 8 9 9 8 6 7 7 7 5 3 2 3 5 7 8 9 12 19 17 17 20 25 28 27 27 26 26 28 27 27 26 26 27 29
4 7 5 3 1 1 4 2 7 10 11 11 9 7 8 8 8 6 4 3 2 3 5 7 8 9 13 20 22 23 25 27 28 26 26 23 24 26 26 24 25 26 27 30
5 6 6 4 6 2 2 14 13 13 11 10 11 8 7 7 8 8 5 4 3 3 5 8 9 10 16 19 21 23 25 25 26 24 25 25 26 26 24 25 31 29 25 30
Wind_Direction
190 203 208 202 207 190 140 165 185 239 262 278 259 272 260 275 270 270 285 283 269 267 275 284 294 297 292 287 279 273 268 264 256 236 226 229 232 233 238 242 246 247 248 248
180 229 197 193 209 208 206 232 231 236 244 202 283 277 279 265 258 256 274 283 280 289 287 287 294 300 297 294 288 280 276 270 260 237 235 229 233 234 237 237 240 244 247 248
202 223 181 182 164 179 197 221 211 232 314 271 295 287 270 252 220 272 267 266 284 279 296 304 307 306 306 300 297 290 288 277 265 253 236 233 231 235 231 235 242 245 245 248
230 223 170 169 205 183 228 182 163 208 233 262 127 287 310 274 277 239 272 285 289 309 307 310 329 332 330 316 311 307 301 288 276 263 235 226 225 225 227 233 238 241 243 246
212 180 176 195 210 158 229 166 181 179 215 299 219 284 285 113 197 264 272 262 315 297 306 327 330 342 357 7 7 351 331 305 285 265 244 231 233 238 242 241 239 242 245 249
211 186 173 197 162 183 154 91 58 64 124 245 177 182 271 183 186 218 259 24 318 346 345 327 352 9 16 17 18 18 31 22 347 283 256 243 238 242 242 243 240 239 242 244
149 204 171 132 112 115 178 135 196 212 205 246 202 175 246 305 284 235 266 296 342 349 342 348 10 17 20 22 21 22 26 24 32 27 326 273 257 253 252 250 250 246 244 243
207 209 188 186 188 169 195 187 186 195 194 236 133 231 246 199 260 127 190 153 62 7 7 25 20 21 19 21 25 28 26 23 21 25 28 23 356 307 275 268 261 255 253 250
183 236 119 205 163 160 175 209 213 350 80 55 230 280 285 275 271 143 150 107 62 35 25 34 27 24 19 20 22 23 28 22 20 17 18 21 16 8 351 314 286 274 264 259
203 156 199 185 120 232 168 153 151 194 201 234 243 252 238 263 94 133 139 82 74 74 29 33 29 24 19 14 16 22 25 22 17 13 13 11 10 6 360 354 342 318 293 280
151 154 10 134 200 175 177 209 206 141 165 179 219 250 211 237 216 164 165 108 97 68 43 31 26 22 18 14 14 16 12 17 11 7 7 3 3 0 0 357 349 340 326 317
182 167 176 201 229 232 208 211 193 180 209 229 250 257 166 150 145 146 139 115 91 65 42 30 22 21 18 13 10 10 8 7 8 360 354 0 352 354 349 352 350 346 337 327
172 204 107 321 5 35 196 216 201 218 80 215 209 258 14 134 134 124 135 121 95 68 36 28 25 19 14 9 3 2 3 1 1 353 350 347 351 349 345 345 346 342 337 335
171 190 216 224 215 146 201 197 206 199 216 239 224 247 216 190 173 156 127 111 104 79 46 28 20 12 6 6 359 355 357 355 347 350 341 346 341 344 337 333 337 337 337 333
176 219 216 237 205 190 205 210 202 205 221 214 242 231 254 225 186 160 137 120 84 53 36 21 9 1 356 355 352 351 351 348 345 342 339 338 343 338 335 334 336 336 332 327
196 233 174 246 231 214 231 223 204 211 225 228 250 247 159 103 95 127 133 123 94 56 26 10 2 355 352 349 346 345 344 342 343 344 342 343 336 334 332 335 331 331 327 323
189 198 155 246 175 165 237 230 202 213 220 210 223 240 149 170 172 164 146 121 103 50 11 1 357 352 346 344 343 343 338 338 342 342 343 335 332 331 332 330 328 328 324 321
191 211 190 222 140 223 238 189 205 208 215 213 232 169 164 159 120 113 101 125 84 23 1 356 353 344 344 342 343 338 338 343 343 346 339 337 334 329 328 326 326 327 319 318
208 197 205 176 219 311 263 196 158 166 245 215 219 152 131 115 100 135 124 103 88 51 11 357 350 347 344 346 342 341 345 346 349 344 339 335 332 327 326 323 320 317 316 316
208 220 211 150 196 214 254 168 150 104 269 177 178 172 150 144 175 176 133 103 81 52 18 0 354 348 346 347 347 351 351 350 348 341 334 330 328 326 323 322 322 318 315 311
200 214 220 215 218 261 219 170 147 142 249 139 134 146 153 168 81 115 114 105 82 49 20 11 358 348 349 351 352 354 353 353 344 338 334 333 335 332 328 327 328 325 322 318
199 198 211 208 208 248 153 85 180 186 81 128 117 116 109 114 116 108 100 81 56 38 18 9 357 353 351 355 354 354 357 345 339 337 338 338 336 335 332 330 331 331 327 323
233 214 200 203 215 10 348 26 39 42 134 142 124 119 120 122 119 111 99 83 72 48 17 11 2 350 351 357 4 358 347 341 339 344 343 337 335 335 336 336 335 333 329 326
284 227 206 126 182 173 217 60 68 47 110 113 117 125 119 125 142 140 143 126 89 32 15 1 358 356 354 0 4 359 348 346 345 336 334 335 335 337 341 342 340 332 332 331
187 162 164 274 153 58 208 161 127 114 111 111 110 121 124 135 133 144 137 128 95 33 17 9 4 357 354 359 1 359 355 355 344 336 333 333 336 339 340 339 335 336 335 335
184 169 179 218 163 114 132 162 159 140 142 142 132 120 110 123 134 139 138 122 74 35 15 13 8 360 358 358 356 354 355 355 347 334 334 334 335 337 337 336 334 340 339 340
Height
830 831 829 835 835 838 843 850 854 852 845 844 844 834 837 830 832 833 831 826 822 815 806 804 801 798 796 795 794 793 792 791 793 794 796 797 796 799 800 801 802 804 808 812
832 827 832 833 836 838 839 843 847 847 843 848 844 831 827 829 826 824 824 818 813 811 806 801 797 794 791 788 786 785 785 784 784 786 786 787 787 788 790 793 794 796 800 803
824 823 824 829 836 842 844 846 846 848 845 844 844 824 820 817 819 819 815 814 812 809 807 800 795 791 786 783 780 779 777 776 776 777 778 780 782 783 785 785 786 785 788 792
823 823 824 826 827 833 842 841 843 849 851 850 845 834 825 817 817 819 816 813 811 810 805 801 795 790 784 779 776 775 773 772 772 771 773 773 773 774 774 775 778 780 781 784
822 825 825 828 826 832 836 838 844 848 852 852 847 848 825 817 823 818 808 811 812 808 806 802 797 793 787 779 774 770 767 766 766 766 768 770 771 771 772 774 775 776 776 776
822 820 821 820 826 829 836 843 848 850 849 842 848 852 802 820 816 812 808 811 808 808 806 803 799 794 789 783 777 773 766 764 763 765 766 767 767 767 768 769 769 769 770 771
824 821 816 816 828 830 832 841 857 858 851 848 842 847 801 806 805 805 806 805 806 808 806 804 800 795 791 786 781 776 772 770 767 766 767 767 767 768 768 768 768 767 766 766
810 819 815 815 813 821 828 831 843 854 864 841 846 833 805 799 799 801 802 802 805 808 807 806 804 801 797 792 786 781 779 776 774 771 768 767 767 767 766 766 765 763 761 761
813 808 804 808 809 809 830 826 823 842 877 862 839 824 796 790 791 801 802 804 807 808 808 807 805 802 799 795 790 787 783 781 778 775 771 766 766 766 765 764 761 759 757 755
802 808 805 806 807 809 814 818 831 845 846 841 826 827 808 794 798 801 801 802 807 809 808 807 806 803 801 798 794 788 785 783 780 778 775 771 769 767 764 762 759 758 753 749
799 798 812 808 804 802 811 813 816 817 841 848 846 817 799 788 792 798 797 801 808 810 810 809 807 805 804 802 797 791 788 782 780 779 776 774 770 768 765 762 758 754 750 745
793 799 812 804 798 796 792 798 805 809 831 827 822 795 781 785 791 792 797 807 810 812 812 810 809 806 804 802 799 795 792 788 783 783 782 775 774 771 768 760 755 752 747 741
786 799 820 811 805 802 802 794 794 795 813 809 815 796 786 789 793 796 804 809 811 812 813 810 809 807 806 804 802 798 793 788 783 784 783 779 773 769 765 758 751 751 748 740
777 789 778 777 775 788 795 794 793 794 801 787 792 780 784 783 788 802 807 810 812 813 812 812 811 811 809 808 806 803 799 797 796 786 788 778 778 769 768 762 754 750 742 737
777 786 779 773 776 783 780 777 786 792 778 787 769 781 764 776 786 796 804 808 810 811 812 813 813 812 810 808 806 803 801 798 793 790 789 783 773 770 764 758 748 741 739 735
777 779 782 778 779 783 780 782 783 775 771 778 772 780 772 789 796 802 805 807 811 813 814 815 814 813 811 808 806 804 800 796 792 786 781 777 774 767 763 752 747 741 736 732
772 773 783 783 780 782 783 760 774 773 768 766 776 747 778 791 793 799 805 808 811 813 814 814 814 813 811 810 807 803 800 795 790 786 783 778 772 765 758 752 746 738 733 729
764 768 773 778 789 768 746 747 746 752 753 758 755 765 768 776 791 799 804 808 810 812 813 813 814 813 811 809 805 802 798 794 789 784 779 773 767 762 756 750 744 734 734 726
749 757 765 771 764 759 745 755 757 759 745 748 748 773 781 789 796 806 807 808 810 812 812 813 813 811 808 806 804 800 796 793 789 785 779 772 766 759 753 748 745 741 730 721
755 747 754 784 759 757 717 737 744 743 745 751 748 763 777 785 786 789 805 808 810 811 811 811 810 809 809 806 802 797 795 792 788 784 779 773 767 760 754 747 742 736 729 720
745 744 738 739 751 753 735 743 742 762 733 751 756 762 771 775 785 797 803 807 809 810 810 810 809 809 808 805 801 797 794 791 787 782 776 770 763 757 752 745 738 732 725 716
728 729 729 737 743 741 736 745 727 730 753 756 764 768 773 783 792 798 803 805 807 809 810 811 809 808 807 804 801 797 793 791 785 780 773 767 762 756 750 743 737 731 725 716
732 722 721 721 717 746 750 747 749 749 752 762 766 773 775 783 791 796 801 804 807 810 811 811 810 808 806 804 800 796 794 790 784 777 771 767 762 756 749 742 735 730 726 718
730 729 726 725 738 749 756 757 755 757 758 763 768 775 779 784 791 796 800 804 808 809 809 809 809 807 804 801 799 798 794 789 784 779 773 767 761 754 747 741 736 734 726 717
723 726 735 741 754 755 753 754 760 765 767 772 775 778 782 785 791 796 801 805 808 808 808 807 806 805 803 799 797 795 791 787 783 778 772 766 760 751 744 742 739 732 727 722
722 720 717 714 729 730 738 750 760 761 769 775 777 782 785 787 794 799 802 805 806 806 806 805 804 803 801 798 796 794 791 787 783 778 771 765 759 751 746 740 730 728 725 718